Wind_Speed
22 23 23 24 24 24 24 24 25 26 26 26 27 27 27 27 26 26 25 24 23 23 23 23 23 22 21 19 18 17 15 15 14 14 14 13 14 15 15 17 18 17 15 13 12 13 14 15 16 17 18 18 17 15 13 10 9 9 9 8 4 4 3 2 3 6 8 13 15 15 15 15 13 12 10 9 8 7 6 6 7 8 6 6 7 5 8 13
21 22 23 24 25 26 25 25 25 25 26 26 27 27 27 27 27 27 27 26 25 24 24 24 24 24 23 22 20 19 17 16 16 15 15 14 14 15 16 17 18 18 17 15 13 12 14 16 17 18 19 19 18 16 14 12 10 9 10 9 6 5 3 1 4 7 8 12 14 13 14 15 14 14 12 10 9 8 7 6 7 8 7 6 7 6 8 13
20 21 22 23 24 26 27 27 27 26 26 26 26 26 27 27 27 28 28 27 26 26 25 25 25 25 25 24 22 21 19 18 18 17 16 14 14 15 16 17 18 19 19 16 13 10 10 14 16 18 19 19 18 16 15 13 12 10 10 10 8 6 3 1 2 7 7 10 14 12 13 16 15 14 14 11 9 9 8 6 6 8 8 7 7 7 8 12
21 21 22 22 23 25 26 27 28 28 28 27 26 26 26 27 27 27 28 28 27 27 26 26 26 26 26 25 24 23 22 20 20 19 18 16 14 14 16 17 17 18 19 17 14 9 7 11 14 15 16 17 17 16 15 15 13 11 9 10 9 6 3 1 1 3 3 6 11 10 12 17 16 14 14 12 11 10 8 6 5 6 7 7 8 8 8 12
23 23 23 23 24 25 26 27 28 29 30 29 29 27 26 26 27 27 27 27 27 27 27 26 26 26 26 26 25 24 23 22 21 21 20 18 16 14 15 17 17 17 18 18 16 11 9 11 13 13 14 15 17 17 17 16 14 11 10 9 9 7 4 2 1 3 2 5 8 9 13 17 16 15 14 13 11 9 7 7 6 5 5 5 7 10 9 11
25 24 24 25 25 26 27 28 29 29 30 31 31 30 28 27 27 27 28 27 27 27 27 26 26 26 27 27 27 26 24 23 22 22 22 20 18 16 15 17 17 17 18 18 17 15 13 13 13 13 14 15 17 19 18 17 16 13 11 9 8 7 6 4 3 5 5 6 8 8 13 16 16 17 15 12 9 7 6 6 6 6 6 2 4 10 12 12
27 26 26 26 26 26 28 29 30 31 31 31 32 32 31 29 28 27 28 28 28 27 26 26 26 26 26 27 28 27 25 24 23 23 23 22 21 18 15 16 17 18 18 18 19 19 16 13 13 15 16 17 19 20 19 18 17 15 12 10 9 7 6 4 4 6 6 4 7 8 14 16 16 19 16 12 11 9 8 6 6 7 7 3 3 8 12 13
27 27 27 26 27 27 28 30 31 32 32 33 33 33 33 32 31 29 28 28 28 28 27 26 26 26 25 26 27 27 26 25 24 24 23 23 22 20 17 17 17 18 18 19 21 21 19 16 16 17 19 21 21 20 19 19 17 15 13 12 10 7 6 4 4 5 4 2 5 7 13 14 16 19 16 14 13 11 9 7 7 7 7 5 3 6 11 13
28 28 27 27 27 27 28 30 32 33 34 34 34 34 34 35 34 32 31 29 29 28 28 27 26 26 25 25 26 27 26 25 24 24 23 23 23 22 20 19 18 17 18 19 21 23 22 20 18 19 23 24 23 21 21 20 17 15 14 13 10 7 6 5 4 3 3 3 5 7 11 12 16 18 16 15 14 12 10 8 8 8 8 7 3 4 9 13
29 28 27 27 27 27 29 30 32 33 35 35 35 35 35 36 36 35 34 32 30 29 29 28 27 26 25 25 26 26 27 26 24 23 23 23 23 23 21 21 19 17 19 21 23 25 26 24 21 21 23 23 22 22 21 20 17 15 14 12 10 8 7 6 5 3 4 4 5 8 11 14 18 20 18 17 15 14 11 9 9 8 8 8 4 3 6 12
29 28 28 27 27 27 28 30 32 34 35 36 36 36 35 36 37 37 36 35 33 31 30 29 28 27 26 26 26 26 27 26 25 23 23 23 23 23 22 22 21 19 20 23 24 25 26 26 23 20 19 19 19 20 20 19 17 14 12 11 9 9 8 7 6 4 4 4 3 6 11 17 22 22 20 19 17 16 12 10 9 8 8 8 5 3 5 9
29 28 28 27 27 27 28 30 32 34 35 36 37 36 35 36 38 38 37 36 35 33 32 31 29 28 27 26 26 26 26 26 25 23 22 22 23 23 23 23 22 22 23 24 24 25 25 25 24 21 17 16 17 19 20 17 16 15 13 11 10 9 8 7 8 7 5 2 1 2 7 18 25 22 20 19 17 15 12 10 9 7 7 8 6 4 4 8
28 28 28 27 27 27 28 30 31 33 34 35 36 36 35 35 37 38 38 37 36 35 33 32 30 29 28 28 27 26 26 26 26 24 22 22 22 23 24 24 23 24 26 25 23 24 25 26 26 23 18 17 17 18 18 16 17 18 16 13 11 11 9 9 9 9 8 4 2 4 8 20 23 20 20 20 17 14 12 10 9 7 6 7 6 4 4 7
28 28 28 28 28 28 29 30 31 32 33 34 34 35 36 36 35 36 37 37 36 36 34 32 31 30 29 29 28 27 27 26 26 24 23 22 22 23 24 25 24 26 27 24 22 23 24 27 27 24 21 19 16 15 15 16 18 18 18 15 13 13 11 11 10 10 10 7 5 6 12 21 21 17 18 20 19 16 13 11 9 7 6 7 6 4 4 6
28 28 28 29 28 28 29 30 31 32 32 33 32 32 34 35 34 34 36 37 36 36 35 33 31 30 30 30 29 29 27 27 26 25 24 23 23 23 24 25 25 26 27 24 22 23 24 25 25 24 23 21 16 15 15 16 17 17 19 17 15 14 14 13 11 9 9 9 7 8 15 22 21 17 16 18 20 17 13 11 9 8 6 6 6 4 3 4
28 28 29 29 29 29 30 31 32 32 32 32 31 31 32 33 32 33 34 35 36 35 35 34 32 31 31 30 30 30 29 27 27 25 24 24 23 23 23 24 25 26 26 24 24 23 23 24 24 25 25 22 18 17 16 16 17 17 20 19 16 16 16 15 13 11 10 10 9 9 13 18 19 17 14 18 21 18 14 11 9 8 6 6 6 5 4 5
29 29 29 29 29 29 31 32 32 33 32 32 31 31 31 31 31 32 33 33 34 35 35 34 33 32 32 31 31 31 30 29 27 26 25 24 23 23 24 24 25 26 25 25 24 23 23 23 24 25 25 24 22 20 18 18 18 18 20 21 19 18 18 17 15 15 14 12 12 11 12 14 17 16 15 19 22 19 16 13 10 8 7 5 4 4 4 6
29 29 28 29 29 29 31 32 33 33 33 33 33 32 31 31 30 31 32 32 33 34 34 34 33 33 32 32 32 31 31 30 29 27 25 24 24 24 24 25 25 25 25 24 24 23 23 24 24 25 26 25 24 22 20 20 20 19 20 21 21 20 20 18 17 17 16 15 14 15 14 13 16 18 18 18 19 18 17 15 12 10 8 6 4 3 4 5
29 28 27 28 28 29 31 33 33 34 33 33 34 34 33 31 30 31 31 31 31 33 33 33 33 33 33 32 32 31 31 30 29 28 27 25 25 24 24 24 24 23 23 23 23 24 24 25 24 24 24 25 25 25 24 23 23 22 21 23 23 22 21 20 18 18 17 17 17 18 18 17 17 18 19 19 19 17 15 13 11 11 10 8 6 4 4 5
28 27 26 27 28 29 31 32 33 32 32 33 34 34 33 32 30 31 31 30 30 31 32 32 32 33 33 33 32 32 32 31 31 30 28 26 26 25 24 23 23 22 21 21 22 23 25 25 23 22 24 26 27 28 28 28 25 24 23 24 25 23 22 22 21 20 19 19 20 20 20 20 19 18 19 19 20 19 16 13 11 11 11 9 8 7 5 5
28 26 26 26 27 28 30 31 32 31 30 32 33 33 33 32 31 31 31 30 30 30 30 32 32 32 33 33 33 32 32 32 32 31 29 27 27 27 26 24 23 22 21 21 21 22 23 23 22 24 26 27 28 29 31 31 28 26 26 27 28 25 24 24 23 22 21 22 22 21 20 20 19 19 19 20 20 20 19 16 15 15 14 11 9 8 7 5
27 26 25 25 26 27 28 29 29 29 28 29 31 31 32 32 31 31 31 30 30 30 29 30 31 31 32 33 33 32 32 31 32 32 32 29 27 28 27 26 25 24 23 21 21 20 20 20 24 28 29 28 28 29 31 32 32 29 28 29 30 27 26 26 25 25 23 24 24 22 21 21 20 20 20 21 21 21 21 20 19 19 17 14 12 10 8 6
27 26 26 26 26 26 26 26 25 25 26 27 28 29 29 30 31 31 31 30 29 29 29 30 30 31 31 31 31 32 32 32 31 32 32 31 29 28 28 28 27 26 24 23 22 20 18 20 26 29 30 29 29 29 30 32 33 32 30 30 31 31 29 28 28 27 25 25 25 24 23 22 21 21 20 20 21 22 23 22 21 20 19 17 15 13 12 11
27 27 26 26 26 25 24 24 22 22 22 23 25 25 26 28 30 31 31 30 29 29 29 29 29 29 29 29 30 31 31 32 32 32 32 32 31 30 30 29 28 27 26 24 23 21 20 24 27 28 28 29 29 29 30 30 31 32 31 30 31 32 32 30 29 29 27 26 25 25 24 23 21 21 20 19 19 20 22 22 20 19 19 16 13 12 13 13
28 27 26 26 26 24 22 22 20 19 19 20 21 22 24 26 29 30 30 29 29 29 28 27 27 27 28 28 29 30 30 30 31 32 32 33 32 32 31 30 29 28 27 26 25 23 25 27 28 27 26 28 29 29 30 30 30 31 31 30 29 31 32 32 31 30 28 27 27 27 25 24 23 22 21 19 17 18 20 19 18 17 17 15 12 10 11 13
27 26 26 25 25 23 22 21 19 18 17 17 17 18 22 24 27 28 28 27 28 28 26 26 27 27 28 28 29 29 30 30 31 32 33 33 32 32 32 32 31 30 28 28 27 26 28 28 28 27 27 27 29 30 30 30 30 29 29 29 30 31 32 32 32 31 30 29 31 30 27 26 25 23 22 21 20 20 21 19 16 14 14 14 13 11 12 13
27 26 25 25 24 23 21 20 18 17 16 15 15 17 20 22 24 26 26 25 26 28 27 26 27 27 28 28 28 29 30 31 32 32 33 33 32 32 32 32 32 31 30 29 27 28 28 28 28 29 28 27 27 28 30 30 29 26 27 31 32 32 33 33 33 32 31 32 33 30 28 27 25 24 24 23 23 23 22 20 16 13 13 13 13 13 12 14
26 25 24 23 23 22 19 18 17 15 14 13 13 15 18 20 23 24 25 24 25 26 27 27 26 26 26 27 27 29 30 30 31 32 32 33 33 33 33 32 32 32 31 30 28 29 29 28 29 30 29 28 27 28 30 30 28 26 30 34 35 35 35 36 35 33 34 35 33 30 29 28 25 24 24 24 22 21 21 20 16 13 12 13 14 14 14 15
25 24 23 22 21 20 17 16 15 14 12 12 13 14 16 19 21 23 24 25 24 25 27 27 27 26 26 27 27 28 29 30 31 30 31 32 33 33 33 33 33 32 31 31 31 31 30 29 30 30 29 29 29 30 29 29 29 31 33 34 36 37 38 38 36 34 35 35 33 31 30 28 26 24 23 20 15 13 17 19 17 14 12 12 13 15 16 17
25 24 22 21 19 16 14 13 13 11 9 10 11 13 15 18 20 23 24 25 25 25 27 27 27 27 27 27 28 29 29 30 29 29 30 31 31 32 33 32 32 31 31 32 33 33 32 31 30 30 30 30 31 31 29 29 31 33 33 33 35 38 39 39 38 36 37 35 32 31 31 29 28 27 24 18 11 10 14 17 17 14 12 11 13 15 17 17
26 24 21 19 15 12 11 11 11 9 8 9 10 12 14 17 21 23 24 25 26 26 27 27 28 28 27 27 28 29 29 29 29 28 28 29 29 30 31 31 31 31 31 32 33 34 33 32 32 31 30 30 31 32 31 31 32 34 34 33 34 37 40 41 40 39 39 36 32 31 31 29 28 27 25 22 19 18 18 18 17 16 15 15 16 16 17 18
26 23 19 15 11 10 9 9 8 7 7 8 9 11 15 18 20 22 24 26 26 26 26 27 27 28 28 28 27 27 28 28 28 28 28 28 28 29 29 30 30 30 30 32 32 33 33 33 32 32 31 31 32 33 33 33 33 34 35 35 35 37 40 42 41 41 40 36 32 32 32 30 27 26 27 26 26 24 22 22 22 22 21 20 20 20 20 20
25 21 16 12 10 8 8 7 6 5 6 7 8 10 14 17 19 21 24 26 26 26 26 27 27 27 27 27 26 26 26 26 27 27 27 27 27 28 28 29 29 29 29 30 31 31 32 32 32 32 32 32 33 34 34 34 35 35 35 36 37 37 40 42 43 42 41 37 34 33 33 32 29 27 27 28 27 26 24 24 25 25 25 24 23 23 23 24
23 19 15 12 9 8 7 6 4 3 5 7 7 8 11 13 16 19 22 24 25 25 26 26 26 26 26 25 25 25 26 26 26 26 26 27 27 28 28 28 28 28 29 29 30 31 31 32 32 32 32 33 33 34 35 35 35 35 36 36 37 38 39 41 42 43 42 39 35 35 35 33 31 28 27 27 26 24 23 23 24 24 24 25 24 23 23 24
21 17 15 12 9 8 7 5 3 1 5 7 6 6 8 11 13 16 19 22 23 24 25 25 24 24 25 24 24 25 25 25 25 26 26 27 27 27 28 28 27 27 28 29 30 30 31 31 32 32 32 33 33 34 35 35 36 36 36 36 38 39 39 39 41 42 42 41 38 37 37 35 32 30 29 28 26 25 25 24 23 23 23 23 21 20 20 21
18 16 14 11 9 8 6 4 3 0 4 7 6 7 8 10 12 14 17 19 21 22 23 24 23 23 24 24 24 25 25 25 25 24 25 25 26 26 27 27 26 26 27 28 29 30 30 31 32 32 32 33 33 34 35 35 36 37 37 38 38 38 38 39 40 42 43 42 41 40 39 37 34 33 33 31 29 27 27 26 24 23 22 20 18 17 18 19
16 16 13 11 9 8 7 5 4 2 3 6 7 8 8 10 11 13 16 18 19 20 21 21 22 23 23 24 24 25 25 25 25 25 24 25 25 26 26 27 27 26 26 26 27 28 29 30 31 32 32 33 33 33 34 35 36 37 38 39 39 38 40 41 42 42 43 43 43 42 41 40 37 35 34 33 31 30 29 27 24 22 21 18 17 17 17 18
15 15 13 11 9 7 7 6 4 2 3 4 5 7 8 9 11 12 15 17 18 19 19 19 20 20 20 21 21 22 23 24 24 24 24 25 25 25 26 26 26 26 25 25 26 27 27 28 29 31 31 33 33 33 33 34 35 36 38 38 39 39 41 42 43 44 43 43 44 44 43 42 40 38 35 34 34 33 32 29 25 23 21 18 17 17 17 18
14 15 14 12 9 6 6 6 4 1 3 4 5 6 7 9 10 11 13 15 17 18 19 19 19 18 18 18 18 19 20 20 21 21 22 24 24 25 25 25 25 25 25 25 25 25 26 27 29 30 30 31 33 33 33 33 33 35 37 38 39 40 42 43 44 45 44 43 44 45 44 44 43 40 37 37 37 37 35 33 29 26 22 18 18 18 17 16
13 14 15 14 12 8 6 6 5 1 2 4 5 6 8 8 9 10 10 12 14 16 18 19 18 17 17 16 16 17 17 16 16 16 18 19 21 22 23 24 25 25 25 25 25 25 26 27 28 29 29 31 32 33 34 33 33 34 35 38 40 41 42 43 44 46 45 44 44 45 45 45 45 43 40 38 39 39 38 36 33 29 25 21 20 20 19 16
12 13 15 15 15 11 7 7 6 3 3 3 3 5 7 8 9 9 9 10 12 13 15 16 17 17 16 15 15 15 16 15 14 14 14 15 16 18 20 22 24 25 25 25 25 26 26 27 28 29 30 30 32 33 34 33 33 34 35 36 39 40 42 43 44 46 47 47 46 46 47 47 46 45 42 40 39 40 40 39 36 33 29 26 24 23 20 16
10 12 14 15 15 14 11 8 6 5 6 6 6 5 6 8 9 9 10 10 12 13 14 15 16 16 15 15 15 15 15 15 14 13 14 14 16 16 17 19 21 23 25 27 27 27 28 28 29 30 30 31 32 33 34 34 34 34 35 36 37 39 41 43 44 46 47 48 48 47 47 47 47 47 45 42 41 41 40 40 38 35 33 31 29 28 25 21
9 9 11 12 14 14 13 12 8 6 7 8 9 8 8 9 9 10 11 12 13 14 15 15 15 15 15 15 14 15 14 14 14 13 14 15 16 17 17 18 20 22 24 27 29 30 30 30 31 32 33 33 33 33 34 34 34 35 35 36 37 38 40 42 44 45 46 48 49 49 49 49 49 48 47 46 44 42 41 40 39 37 36 35 33 32 31 29
7 6 8 10 11 12 13 14 13 9 7 7 7 7 7 7 7 8 9 10 11 12 13 14 15 15 15 14 14 14 14 13 13 13 14 16 16 17 18 19 20 21 23 25 28 30 31 32 33 34 35 35 35 35 36 36 36 36 37 37 38 39 39 41 43 45 46 47 48 49 50 51 51 50 50 49 47 44 42 42 41 39 38 39 39 37 36 33
6 4 6 7 9 10 10 11 13 12 11 9 8 7 6 5 4 3 4 5 7 10 11 13 13 14 14 14 13 14 13 13 13 14 15 16 17 17 18 19 20 21 22 24 25 28 30 33 35 36 37 38 38 38 38 38 38 38 38 39 39 40 40 41 42 44 46 47 48 49 50 52 53 52 51 50 49 47 45 44 44 42 41 42 43 43 41 38
9 4 4 5 6 7 7 8 9 10 10 11 11 11 10 9 8 7 6 5 4 5 7 9 10 11 11 11 11 12 12 12 12 13 14 15 15 15 16 17 18 19 20 22 23 25 27 30 32 35 37 39 40 40 39 39 39 39 39 40 41 41 41 42 42 43 44 45 47 48 49 51 52 52 52 51 49 49 48 46 46 46 45 45 45 45 44 42
14 7 4 3 3 3 4 5 5 5 6 8 9 10 10 9 8 8 8 8 7 5 4 5 6 6 6 6 7 7 7 8 8 9 10 10 11 12 13 15 17 18 19 21 21 22 23 25 28 31 34 37 39 41 41 41 41 41 41 41 41 41 42 43 43 44 44 44 46 48 49 51 51 51 52 51 50 49 48 47 47 47 48 48 47 47 46 45
17 11 5 2 2 3 2 3 3 2 2 4 6 7 7 7 6 7 6 6 6 5 4 3 3 3 3 4 4 4 5 5 6 6 7 9 10 11 11 13 14 15 17 19 19 20 21 22 24 26 30 33 37 39 40 41 42 42 43 43 42 42 42 42 43 44 44 44 46 48 49 49 49 50 51 51 50 48 46 45 45 46 48 49 49 48 47 46
18 14 8 4 4 4 4 4 3 2 2 0 2 3 3 4 3 3 3 3 3 2 1 0 1 2 3 4 4 5 6 6 7 8 9 10 11 11 12 12 13 14 16 17 18 19 20 22 22 24 26 29 33 36 38 40 42 43 44 44 44 43 43 43 43 43 44 45 46 48 49 49 48 48 50 51 50 48 46 44 43 44 46 48 49 49 47 46
19 16 11 7 5 6 6 5 5 4 4 4 3 3 3 3 3 2 2 1 1 1 2 3 4 5 6 6 7 7 8 9 10 11 12 13 14 15 15 16 16 17 18 19 20 20 21 23 23 24 25 27 29 33 36 38 41 43 45 45 45 44 44 44 44 43 44 46 47 48 49 49 48 48 49 50 50 49 46 44 43 43 45 47 48 48 47 46
19 17 14 11 7 7 6 6 5 6 7 7 8 8 8 7 6 5 5 5 4 4 4 5 6 8 8 9 9 10 11 12 13 14 15 16 18 19 20 20 20 21 22 22 23 23 23 25 25 26 27 27 28 30 34 37 39 41 44 45 45 46 46 45 45 45 45 46 47 48 49 49 49 48 48 49 49 49 47 46 44 45 47 48 48 49 48 46
18 17 16 14 11 8 7 6 6 7 9 10 11 11 11 10 10 9 8 8 7 7 7 7 8 9 9 10 10 11 12 13 14 16 17 19 20 21 23 24 24 25 26 26 26 26 26 27 27 27 28 29 30 31 32 35 37 39 42 44 45 47 48 47 46 46 47 47 48 49 50 51 50 50 49 49 49 49 48 46 46 48 50 50 49 49 49 47
Wind_Direction
294 292 291 290 289 288 285 283 280 277 275 273 271 269 267 265 262 260 258 256 254 251 251 252 252 251 249 247 245 243 242 244 245 243 240 234 228 228 225 223 224 224 224 224 223 221 218 216 217 219 221 223 223 225 227 228 227 227 226 221 188 120 108 138 146 134 145 156 157 159 158 160 159 153 151 143 134 128 124 128 116 103 99 81 76 94 117 111
294 291 289 288 287 286 285 284 282 279 276 274 272 270 268 265 263 261 258 256 254 252 250 249 251 250 249 248 246 243 240 240 243 243 241 234 229 227 224 222 223 223 223 223 223 223 218 213 213 213 216 219 219 219 221 221 221 225 226 219 191 143 122 159 179 166 165 173 173 171 166 164 165 158 152 147 143 144 152 154 135 119 114 100 94 106 118 113
293 290 288 285 284 283 283 282 281 280 278 275 273 271 269 266 263 261 259 256 254 252 250 248 248 249 249 248 246 244 240 238 240 242 242 236 230 228 225 224 222 222 224 224 226 228 223 218 217 216 216 217 217 216 217 217 216 221 224 220 203 158 130 358 193 181 186 191 185 181 175 169 169 162 156 155 157 161 162 159 142 131 126 116 114 124 126 119
292 288 285 282 280 279 279 278 277 277 276 275 273 271 269 267 264 261 258 256 254 252 250 248 247 247 248 247 246 244 242 238 237 240 241 237 231 228 225 224 222 221 224 224 223 221 214 217 219 221 222 220 219 214 213 216 216 218 219 222 214 176 153 357 306 215 204 184 185 193 186 175 172 165 160 163 168 170 165 155 148 136 132 132 130 135 136 125
292 288 284 280 278 276 275 274 273 273 273 272 271 270 268 267 265 262 259 255 253 251 249 248 246 245 245 247 246 245 242 239 236 237 238 237 232 227 224 225 223 219 221 221 219 211 199 206 210 214 221 224 221 215 212 213 209 210 213 220 222 199 192 216 291 272 243 182 187 206 197 183 176 170 168 172 169 170 171 159 148 130 125 141 143 142 141 130
295 290 284 279 276 273 272 271 270 269 268 268 268 267 267 265 264 262 260 256 253 250 248 247 245 244 243 244 245 244 242 239 236 235 236 236 232 227 222 225 223 218 217 217 215 209 203 204 203 204 211 220 223 217 213 211 204 204 205 211 219 212 214 235 284 307 293 212 195 205 198 188 180 174 172 171 164 166 175 157 138 125 118 140 160 149 145 134
298 293 287 281 276 272 270 269 269 267 265 265 264 264 264 263 261 260 259 257 253 250 248 246 244 243 241 241 243 243 242 239 236 235 234 234 233 227 221 223 223 218 215 213 211 210 210 204 198 198 201 211 219 217 214 212 207 201 197 204 215 215 220 258 302 320 320 214 193 192 189 189 181 175 169 164 167 168 166 155 143 133 126 141 168 153 146 135
302 296 290 284 278 273 269 267 266 266 265 263 262 261 260 260 259 258 257 256 254 251 248 245 243 242 241 240 240 242 241 239 236 235 234 233 233 228 222 222 222 217 214 211 210 211 211 207 201 198 199 208 214 214 213 213 207 198 196 204 210 211 215 245 288 315 327 181 178 176 181 189 180 174 171 168 170 166 157 156 156 143 137 147 167 162 151 138
306 301 295 289 282 276 270 267 265 264 264 263 262 260 259 258 257 255 254 253 253 252 249 246 243 242 241 240 239 240 240 239 237 234 233 232 232 229 222 221 220 216 214 211 209 211 211 210 207 201 203 209 210 210 212 210 203 196 198 203 205 205 206 224 240 287 298 193 178 174 182 191 179 174 176 172 169 164 157 159 158 150 148 153 171 182 160 147
309 305 299 293 287 280 274 269 266 264 263 262 262 260 259 258 256 254 252 251 250 250 250 248 245 241 240 240 239 239 239 238 237 234 232 230 230 229 224 221 219 214 213 211 208 208 209 210 211 208 210 214 213 212 213 208 199 195 199 202 204 205 204 218 226 247 265 234 210 197 200 196 180 177 177 172 169 167 164 162 157 153 152 155 168 184 164 156
310 306 302 297 291 284 278 273 268 265 263 262 261 261 259 258 256 254 252 250 248 247 247 248 246 243 240 240 240 239 237 236 237 234 231 229 228 228 225 221 219 215 214 212 209 210 210 211 213 216 218 220 219 218 217 208 196 193 196 198 202 208 208 212 217 215 228 252 245 217 220 201 182 179 177 170 169 169 167 162 158 156 148 148 168 175 160 164
310 307 303 299 293 287 281 276 271 268 265 263 261 261 261 258 256 254 252 250 248 246 244 245 245 244 241 239 240 239 237 235 235 233 231 229 226 225 224 221 218 215 217 215 210 209 211 212 213 216 218 219 220 220 219 208 194 189 187 188 198 208 207 202 206 200 188 206 187 170 200 184 176 176 174 169 169 167 165 161 157 154 139 137 163 180 167 173
309 307 304 300 294 288 282 277 273 270 268 266 263 261 261 259 256 254 253 250 248 246 244 242 242 243 241 239 239 239 238 236 235 232 230 228 226 224 222 221 217 215 219 218 212 209 209 210 212 213 212 214 217 217 218 207 196 189 181 183 196 208 209 204 204 197 186 184 148 107 148 165 168 172 170 167 167 165 162 157 154 148 133 132 152 181 179 178
310 308 304 300 294 288 282 277 273 271 269 268 265 263 260 258 256 253 251 250 247 245 243 241 239 239 239 238 237 237 237 236 235 232 229 227 224 222 221 219 215 215 219 217 212 213 211 210 212 211 209 211 212 213 214 207 199 190 179 182 197 206 211 210 206 198 193 187 156 118 143 163 168 167 167 168 166 165 160 153 154 149 130 126 138 174 183 176
311 308 304 299 293 287 282 276 272 270 269 268 267 263 260 257 254 251 249 248 246 244 242 240 237 236 236 236 236 235 235 235 234 232 229 227 223 220 219 218 215 216 219 215 210 213 213 213 213 211 210 209 206 206 208 204 200 191 181 186 199 202 207 213 209 198 193 188 169 132 139 158 162 155 160 171 168 162 156 149 152 146 123 115 124 153 175 171
312 308 303 298 291 285 280 275 271 268 267 266 266 263 260 256 252 249 247 246 244 242 240 238 236 234 233 233 233 233 233 233 233 232 229 227 224 220 218 217 216 216 217 214 211 211 211 212 213 212 212 209 204 202 203 201 198 192 185 189 201 202 204 211 207 197 190 180 170 152 143 150 151 142 143 159 162 157 151 144 143 138 122 112 116 131 155 166
312 308 302 296 289 282 277 274 270 266 263 263 262 261 260 255 250 246 244 242 241 240 237 235 235 234 232 230 230 230 231 231 230 230 228 227 225 221 217 215 215 215 215 213 211 210 209 210 211 212 213 210 205 202 201 200 196 194 189 189 200 205 205 207 202 197 193 180 169 164 158 151 148 145 138 147 155 156 154 148 143 140 130 121 120 122 142 165
314 308 302 295 288 281 276 272 268 265 261 259 258 257 257 254 247 242 241 239 238 237 235 233 232 232 232 229 228 228 229 229 230 229 227 225 223 221 218 215 214 213 213 211 209 208 207 209 208 209 211 211 208 204 201 201 197 194 192 189 197 208 210 205 202 200 195 189 181 172 170 165 158 155 149 147 151 153 155 156 155 152 144 135 138 130 130 160
315 309 302 295 288 281 275 271 268 265 260 256 254 253 253 250 244 239 238 237 235 234 232 231 230 230 230 228 227 226 226 227 228 229 227 224 222 221 219 215 214 212 210 209 207 206 207 209 207 206 209 211 210 207 204 204 200 193 190 187 192 205 212 208 204 202 197 192 188 182 179 177 172 165 158 151 148 148 152 157 160 158 153 148 152 152 137 150
316 310 303 296 289 283 277 273 269 266 261 256 252 251 249 245 240 238 236 234 232 231 229 228 227 227 228 227 226 225 224 224 225 227 227 224 222 222 221 217 215 213 209 208 206 204 207 208 206 204 205 208 209 208 207 207 203 195 189 186 187 198 211 210 203 200 197 193 191 188 184 182 181 177 169 160 154 150 152 155 158 159 158 160 165 167 159 144
319 313 305 297 290 284 279 275 272 268 263 258 252 249 245 239 236 235 234 232 230 228 226 225 224 225 226 226 225 225 224 223 223 224 225 224 222 222 222 220 217 216 212 210 207 205 206 206 205 205 206 206 207 208 209 208 205 199 192 186 184 192 206 207 203 200 196 195 194 193 190 185 185 185 180 173 166 160 159 159 160 162 165 169 176 178 165 145
321 315 307 300 293 288 284 279 275 270 264 259 254 248 242 237 233 231 230 229 228 226 223 223 223 223 224 224 224 224 224 222 222 223 224 223 221 221 222 220 218 218 215 213 210 206 205 205 207 209 208 206 205 208 210 210 208 203 197 190 184 191 202 203 203 202 196 196 197 197 197 192 189 191 189 185 180 173 169 167 165 166 170 170 176 180 164 153
322 315 309 304 298 293 289 284 278 272 265 260 256 249 242 235 231 229 229 226 224 223 222 221 221 221 223 223 223 223 223 222 221 222 223 223 222 220 221 221 219 218 217 215 212 208 203 205 211 212 211 208 206 208 211 213 211 206 202 195 189 193 199 200 203 204 199 198 197 198 202 200 196 198 198 194 190 183 176 173 170 171 175 176 177 176 169 169
321 315 310 304 299 297 294 288 282 274 267 262 257 251 243 235 230 228 229 227 222 220 220 220 220 220 222 222 222 222 222 221 220 220 221 221 222 220 220 221 221 220 219 217 216 212 207 209 213 214 213 211 209 208 212 214 214 210 206 202 196 197 200 200 203 205 202 201 201 200 203 205 205 206 206 202 199 192 180 174 174 177 180 183 181 171 173 178
321 313 308 303 300 299 296 292 286 277 270 264 257 251 242 234 228 226 227 227 222 218 217 217 218 218 218 219 220 220 219 219 218 218 219 220 220 220 220 222 222 222 220 219 218 214 212 214 217 216 214 213 211 210 212 213 214 212 210 207 203 203 204 203 203 205 203 202 206 207 204 205 208 211 212 208 206 203 191 180 178 184 184 186 187 175 176 180
319 311 306 302 301 301 297 293 288 279 271 265 256 247 238 232 227 223 222 223 220 217 213 212 213 214 215 216 218 218 218 218 216 216 217 219 220 220 220 221 222 223 222 221 220 217 218 220 221 220 217 215 213 212 212 213 213 210 209 208 208 207 208 207 205 205 203 203 209 211 206 206 209 211 214 212 212 213 209 197 187 188 189 190 193 185 179 180
317 311 306 302 302 302 297 293 289 279 270 263 253 241 232 227 224 219 217 216 215 213 210 209 209 210 213 214 215 216 217 218 217 216 216 217 218 220 220 221 222 223 224 224 223 222 223 223 223 223 221 219 217 215 215 215 213 209 206 206 208 209 210 211 209 206 204 207 211 211 209 209 210 211 215 216 216 219 218 210 199 194 195 196 199 196 187 186
318 313 308 304 303 302 297 291 288 280 268 259 248 237 227 221 218 215 211 208 208 209 207 207 207 208 210 211 212 215 217 218 218 217 217 216 217 218 220 220 220 222 223 225 225 224 224 223 223 225 224 221 219 217 216 215 211 209 207 205 205 207 210 213 212 207 207 210 210 211 212 211 210 213 217 219 219 220 220 214 204 198 196 196 199 201 197 195
322 316 311 307 305 302 295 288 286 279 265 252 243 234 222 215 211 208 205 200 200 204 205 205 205 205 207 208 209 213 215 217 218 218 218 218 218 219 220 221 221 221 222 223 225 226 225 223 224 225 223 221 219 219 218 214 210 210 211 208 206 207 210 215 214 210 211 212 209 212 213 210 211 214 216 217 218 221 220 213 205 200 198 197 198 201 202 202
326 322 317 312 307 301 292 288 286 276 258 247 239 229 218 209 205 203 200 195 193 197 200 203 204 203 204 205 208 211 214 216 217 218 220 220 220 220 220 221 221 221 221 223 225 227 227 226 225 224 222 220 219 220 218 214 211 213 214 211 209 210 211 216 217 214 216 215 210 212 215 211 211 216 218 215 207 203 206 205 202 197 192 191 195 200 203 204
332 329 323 317 310 301 293 291 287 271 250 242 232 220 210 202 200 199 195 191 192 194 196 200 202 202 202 203 206 211 215 218 218 218 220 221 222 222 221 220 220 220 222 224 225 227 227 227 226 225 223 220 219 219 217 214 212 214 215 212 211 212 214 217 219 219 221 218 211 213 217 213 211 216 219 215 202 195 197 198 195 187 182 183 187 191 197 201
337 335 331 324 315 305 299 294 285 262 237 232 222 208 200 196 196 194 191 190 191 191 193 196 200 201 202 203 205 211 215 218 219 219 220 221 223 224 222 221 219 219 221 224 225 227 227 227 227 226 224 220 219 218 216 214 214 214 215 214 212 213 215 219 221 223 225 222 214 215 219 217 213 214 217 214 205 199 201 202 195 187 183 182 183 187 191 195
341 340 339 334 324 315 307 300 285 253 221 216 210 200 196 194 192 190 190 190 189 187 189 192 197 201 203 204 206 209 212 214 217 218 220 221 222 223 223 222 220 218 220 223 224 226 226 226 226 226 224 221 218 218 216 214 215 215 216 215 213 214 216 220 223 225 227 225 218 217 220 219 214 212 214 213 208 204 206 207 203 198 193 187 184 186 188 192
345 345 346 342 335 329 321 313 297 248 207 199 194 191 192 192 191 191 189 187 187 187 188 191 196 201 203 202 202 206 208 210 213 214 216 218 219 221 222 222 220 218 218 220 222 225 225 224 224 223 223 221 219 218 217 214 214 216 217 217 216 216 217 220 224 226 228 229 224 221 222 220 215 210 207 207 207 207 209 209 207 206 204 199 194 191 190 194
350 353 356 356 353 349 338 329 323 239 191 186 180 174 181 187 190 190 186 185 188 189 189 193 198 201 203 201 199 202 204 206 210 211 213 214 215 217 219 220 219 217 217 219 220 223 224 224 223 222 223 222 219 219 218 215 214 214 216 217 217 218 218 220 225 227 228 230 228 226 226 223 216 209 204 204 208 210 208 204 201 202 204 206 205 200 195 195
356 0 3 6 6 360 350 347 354 108 169 174 173 165 169 180 185 187 185 185 190 193 193 195 199 203 207 205 203 204 205 206 208 209 211 213 214 215 217 218 218 216 217 218 220 221 222 223 224 222 223 223 221 219 218 216 214 214 215 217 217 218 219 220 224 227 228 229 228 228 228 227 221 212 206 205 208 207 203 199 199 200 203 205 206 205 200 196
359 2 2 5 8 6 1 360 3 43 142 167 179 177 173 175 179 184 187 187 192 198 200 199 202 207 211 213 213 212 213 214 214 213 213 214 215 216 217 218 217 216 216 217 219 220 221 223 224 223 223 223 222 221 219 217 215 214 214 216 216 216 218 220 222 226 227 228 228 228 229 229 226 217 208 205 204 202 199 200 202 205 205 205 205 205 202 198
1 3 4 6 8 17 21 14 7 40 127 157 173 179 182 184 182 185 189 191 193 197 201 201 204 210 214 217 220 220 220 222 222 222 221 220 219 219 219 220 219 217 215 215 218 220 220 221 224 223 222 223 223 222 220 218 216 215 215 215 216 216 217 219 221 225 227 227 228 229 229 231 230 222 212 205 203 202 200 202 206 209 208 205 203 204 203 199
4 6 10 11 12 30 49 47 36 51 155 148 153 169 181 187 189 191 194 197 199 201 203 205 207 213 218 221 224 225 225 225 226 227 227 226 225 225 224 224 224 222 219 217 217 220 221 221 223 223 222 223 224 223 222 219 216 215 215 215 215 216 217 218 220 224 226 227 228 229 230 232 232 228 217 208 206 206 205 206 209 211 208 202 197 195 190 185
8 11 15 15 16 26 56 73 74 104 178 154 161 176 178 181 186 192 197 202 206 207 208 211 213 217 220 221 222 223 221 219 220 222 224 226 226 226 226 226 227 227 225 222 219 219 221 222 223 225 223 224 225 224 223 221 219 217 215 215 215 216 217 218 219 221 224 227 229 230 231 232 233 233 225 214 208 209 211 211 211 211 207 198 189 183 175 163
12 15 18 20 21 26 42 75 94 122 160 155 172 188 187 187 191 195 200 204 208 208 207 209 212 215 217 214 210 210 208 205 208 212 215 219 219 221 223 223 224 225 225 224 221 219 221 222 223 225 225 224 225 226 225 223 221 219 217 216 216 216 217 219 220 221 223 225 228 230 232 233 234 235 232 224 216 212 213 214 214 211 205 196 189 184 179 172
15 19 21 24 28 33 45 69 100 137 155 155 163 180 194 201 206 211 214 217 217 214 212 213 214 217 220 217 210 207 206 206 210 214 214 213 212 214 215 217 220 221 221 221 220 218 219 221 222 224 227 227 227 228 227 225 223 222 220 219 217 217 217 219 220 222 222 224 227 229 231 233 234 235 235 232 226 219 216 216 215 211 204 199 197 196 198 200
16 22 24 28 33 38 48 62 84 126 153 156 156 164 181 195 208 219 225 229 229 227 225 225 225 226 227 226 224 222 221 222 223 223 220 214 210 209 209 211 215 218 219 220 220 218 217 218 219 221 225 227 228 229 230 228 225 223 223 222 220 219 218 218 220 222 222 224 226 228 231 233 234 235 236 235 233 228 223 221 219 213 206 203 205 207 210 213
16 27 24 29 37 40 46 56 65 80 108 133 145 154 171 185 200 216 226 231 233 233 232 231 232 234 231 227 228 230 231 232 229 224 221 216 212 209 208 209 212 215 217 219 220 220 219 218 218 219 222 225 227 228 229 230 228 225 224 224 223 222 220 220 220 222 223 224 225 227 230 233 234 234 235 236 236 233 229 226 225 220 211 208 210 214 216 219
11 32 24 29 40 40 41 50 57 64 74 85 93 98 107 118 131 161 193 210 221 225 227 228 231 235 233 227 225 226 227 227 224 219 217 216 215 214 213 213 215 217 219 219 220 220 221 220 219 219 220 223 226 227 227 229 230 229 226 225 224 223 223 222 222 223 224 225 225 226 228 232 233 234 235 236 236 236 233 229 228 225 220 214 214 217 219 222
4 10 18 31 45 39 32 39 51 61 69 74 80 85 90 95 94 92 96 109 153 197 211 217 220 226 230 225 220 219 218 218 217 215 214 214 214 214 213 215 218 221 223 224 223 223 223 223 222 222 222 223 226 227 227 227 229 230 230 228 226 224 224 225 224 224 225 227 227 227 227 230 232 233 235 235 235 236 235 232 229 227 226 223 221 220 221 222
5 356 357 21 36 31 17 16 32 57 72 80 85 86 87 88 86 85 88 93 99 113 142 171 187 200 209 211 211 214 215 218 218 216 216 217 216 213 210 211 215 219 223 226 228 227 227 226 225 225 225 226 227 229 229 228 228 230 231 231 229 227 226 226 226 226 226 227 229 229 229 229 231 232 235 235 234 234 234 233 230 228 228 228 228 226 226 225
12 4 354 338 340 344 325 328 349 7 45 81 90 91 91 87 81 80 81 84 88 91 103 125 154 177 190 201 213 223 230 233 237 236 233 230 227 224 221 219 220 223 225 227 229 230 230 229 227 226 226 227 229 231 232 231 230 230 231 232 232 231 229 227 227 227 227 227 228 231 231 230 230 232 234 235 234 233 233 232 230 228 228 229 230 231 230 230
18 14 7 349 324 318 297 278 280 295 306 62 114 111 114 111 99 88 82 77 72 63 57 96 240 239 233 235 240 247 251 252 255 256 253 249 247 246 246 243 239 240 241 238 236 235 236 235 231 228 227 227 229 231 233 233 233 232 232 233 234 233 232 230 229 228 228 227 228 230 232 231 230 231 234 236 235 234 233 231 228 225 226 228 230 232 231 231
18 18 14 5 343 330 316 289 261 251 258 256 241 232 219 203 195 192 194 200 244 287 285 279 275 268 262 258 257 258 260 262 264 265 265 265 264 262 262 259 256 255 256 253 250 246 244 243 240 235 232 229 228 230 232 234 235 234 234 235 236 236 235 233 232 230 229 228 227 229 231 232 231 230 232 234 235 234 232 231 226 221 221 225 228 230 230 229
15 16 15 10 359 345 335 318 285 262 262 265 259 254 252 246 238 233 229 230 241 255 263 270 274 275 273 271 268 268 269 269 270 271 271 271 271 270 269 268 266 264 264 262 260 257 254 252 250 245 240 236 232 230 231 233 234 235 236 236 236 237 237 236 234 233 231 230 228 228 230 231 231 230 230 232 234 234 231 229 226 220 217 220 224 227 228 227
10 13 13 10 7 359 345 328 303 282 274 272 270 266 265 262 257 256 253 250 252 256 263 271 276 278 278 276 276 277 277 276 276 276 275 274 274 274 272 271 270 269 268 266 265 263 261 260 258 254 249 245 240 237 233 232 233 234 235 236 236 236 237 237 236 235 234 233 232 230 229 230 231 230 231 231 232 233 231 227 224 219 216 218 221 224 226 225
Height
5847 5846 5845 5844 5844 5844 5843 5843 5843 5843 5843 5843 5844 5844 5844 5844 5844 5844 5845 5845 5846 5847 5847 5847 5847 5848 5849 5850 5851 5852 5853 5853 5853 5854 5854 5856 5856 5857 5859 5860 5860 5861 5862 5864 5865 5866 5867 5869 5870 5871 5872 5873 5874 5876 5878 5878 5879 5879 5880 5881 5882 5882 5882 5883 5884 5885 5885 5886 5886 5887 5888 5889 5890 5892 5892 5893 5894 5895 5895 5896 5896 5896 5897 5897 5897 5898 5898 5898
5844 5843 5843 5842 5841 5841 5841 5840 5840 5840 5841 5841 5841 5841 5842 5842 5842 5842 5842 5842 5843 5844 5844 5845 5845 5846 5847 5848 5849 5850 5851 5852 5852 5852 5853 5854 5855 5856 5857 5858 5859 5860 5861 5862 5863 5864 5866 5867 5868 5869 5870 5871 5873 5875 5876 5877 5878 5879 5880 5881 5881 5882 5883 5883 5884 5885 5886 5886 5887 5887 5888 5889 5890 5891 5892 5893 5894 5894 5895 5896 5896 5897 5897 5897 5897 5899 5900 5899
5841 5841 5840 5839 5839 5838 5838 5838 5837 5837 5838 5838 5838 5839 5839 5840 5840 5840 5840 5840 5840 5841 5842 5842 5843 5844 5844 5846 5847 5848 5849 5850 5851 5851 5851 5853 5854 5854 5855 5857 5857 5859 5860 5861 5862 5864 5865 5866 5867 5868 5869 5870 5872 5874 5875 5876 5877 5878 5879 5880 5881 5882 5883 5884 5885 5886 5886 5885 5886 5888 5889 5889 5890 5891 5892 5893 5894 5894 5895 5896 5896 5897 5897 5897 5898 5899 5900 5900
5838 5837 5837 5836 5836 5835 5835 5834 5834 5834 5834 5835 5835 5836 5836 5837 5837 5837 5837 5838 5838 5838 5839 5840 5840 5841 5842 5843 5844 5845 5847 5848 5849 5849 5850 5851 5852 5853 5854 5855 5856 5857 5859 5860 5862 5863 5864 5865 5867 5868 5869 5870 5871 5873 5874 5875 5876 5878 5879 5881 5882 5883 5884 5884 5885 5885 5885 5885 5886 5888 5889 5889 5890 5891 5892 5893 5894 5895 5895 5896 5896 5897 5897 5897 5898 5900 5901 5901
5834 5834 5833 5833 5832 5832 5831 5831 5831 5831 5831 5831 5832 5833 5833 5834 5834 5834 5835 5835 5835 5836 5836 5837 5838 5839 5840 5841 5842 5843 5844 5846 5847 5847 5848 5849 5851 5851 5852 5853 5855 5856 5857 5859 5861 5862 5863 5864 5866 5867 5869 5869 5870 5872 5872 5874 5876 5878 5879 5881 5882 5883 5883 5884 5885 5885 5885 5885 5886 5887 5888 5889 5890 5891 5892 5893 5894 5895 5895 5896 5897 5897 5898 5898 5899 5900 5901 5902
5831 5830 5829 5829 5828 5828 5828 5827 5827 5827 5827 5828 5828 5829 5830 5831 5831 5832 5832 5832 5833 5833 5834 5834 5835 5836 5837 5838 5839 5840 5842 5843 5845 5845 5846 5847 5849 5850 5851 5852 5853 5855 5856 5858 5860 5861 5862 5863 5865 5866 5868 5868 5869 5870 5871 5872 5875 5877 5879 5880 5882 5883 5883 5884 5884 5885 5885 5885 5885 5886 5888 5889 5890 5891 5892 5894 5895 5896 5896 5897 5897 5898 5899 5899 5899 5900 5901 5902
5827 5826 5825 5825 5824 5824 5824 5823 5823 5823 5823 5824 5824 5825 5826 5827 5828 5828 5829 5829 5830 5831 5831 5832 5832 5833 5834 5835 5836 5837 5839 5841 5842 5843 5844 5845 5847 5849 5850 5850 5851 5853 5855 5856 5858 5859 5860 5862 5864 5865 5866 5866 5866 5868 5870 5872 5874 5876 5878 5880 5881 5882 5883 5884 5884 5885 5884 5884 5884 5885 5887 5889 5890 5891 5892 5893 5894 5896 5897 5897 5898 5899 5900 5900 5901 5901 5902 5902
5823 5821 5821 5820 5820 5820 5819 5819 5819 5819 5819 5820 5821 5821 5822 5823 5824 5825 5825 5826 5827 5828 5829 5829 5830 5831 5832 5833 5833 5834 5836 5838 5840 5841 5842 5843 5845 5847 5848 5849 5850 5851 5853 5855 5856 5857 5859 5860 5861 5863 5864 5864 5865 5867 5869 5871 5874 5876 5878 5879 5880 5882 5883 5884 5884 5885 5885 5885 5884 5885 5887 5889 5890 5891 5892 5893 5894 5896 5897 5897 5898 5899 5900 5901 5902 5903 5903 5903
5818 5817 5816 5816 5815 5815 5815 5815 5814 5814 5815 5815 5816 5818 5819 5819 5820 5821 5821 5822 5824 5825 5826 5826 5827 5828 5829 5830 5831 5832 5833 5835 5837 5839 5840 5841 5843 5845 5847 5848 5848 5850 5852 5853 5854 5856 5857 5858 5860 5861 5861 5862 5863 5866 5867 5870 5873 5876 5877 5878 5880 5881 5883 5884 5884 5885 5886 5886 5885 5886 5887 5888 5890 5891 5892 5894 5895 5896 5897 5897 5898 5899 5900 5901 5902 5904 5904 5904
5814 5813 5812 5811 5811 5811 5810 5810 5810 5810 5810 5810 5812 5813 5814 5815 5815 5816 5817 5818 5820 5821 5822 5824 5825 5826 5827 5828 5828 5830 5831 5833 5834 5836 5838 5839 5841 5842 5845 5846 5847 5849 5850 5851 5852 5853 5855 5856 5858 5859 5859 5861 5863 5864 5866 5869 5873 5875 5877 5878 5879 5881 5882 5883 5884 5885 5886 5886 5886 5887 5887 5887 5889 5891 5892 5894 5895 5896 5897 5897 5898 5899 5900 5901 5902 5904 5905 5905
5810 5809 5808 5807 5807 5806 5806 5805 5805 5805 5805 5806 5807 5809 5810 5810 5810 5811 5813 5814 5816 5818 5819 5820 5822 5823 5824 5825 5826 5827 5828 5830 5831 5833 5835 5837 5838 5840 5842 5844 5845 5847 5847 5848 5849 5851 5853 5855 5856 5858 5859 5861 5863 5864 5866 5868 5872 5875 5876 5877 5878 5880 5882 5883 5884 5884 5885 5885 5885 5885 5885 5886 5887 5890 5891 5893 5895 5896 5897 5897 5898 5900 5901 5901 5902 5904 5905 5906
5805 5804 5804 5803 5802 5801 5801 5801 5800 5800 5800 5801 5802 5804 5805 5805 5806 5807 5809 5810 5812 5814 5815 5816 5818 5820 5822 5823 5823 5824 5826 5827 5829 5831 5833 5834 5836 5838 5840 5841 5843 5844 5844 5845 5847 5850 5852 5854 5856 5857 5859 5861 5862 5863 5865 5868 5871 5874 5875 5877 5878 5880 5881 5882 5883 5884 5885 5885 5884 5884 5883 5884 5886 5890 5892 5894 5895 5896 5897 5898 5899 5900 5901 5902 5902 5904 5905 5906
5801 5800 5799 5799 5798 5797 5796 5796 5795 5795 5796 5796 5798 5799 5800 5800 5801 5803 5804 5806 5807 5809 5811 5813 5815 5817 5819 5820 5821 5822 5823 5825 5826 5829 5830 5832 5833 5835 5837 5839 5841 5842 5842 5843 5847 5848 5850 5853 5854 5856 5858 5860 5861 5862 5864 5867 5870 5872 5874 5876 5877 5878 5879 5881 5882 5883 5884 5884 5884 5883 5883 5884 5887 5889 5892 5894 5895 5897 5898 5898 5899 5900 5901 5902 5903 5904 5906 5907
5797 5796 5795 5794 5794 5793 5792 5791 5791 5790 5791 5791 5793 5794 5794 5795 5797 5798 5799 5801 5803 5804 5806 5809 5811 5813 5815 5817 5818 5819 5820 5822 5824 5826 5828 5829 5831 5832 5834 5836 5838 5839 5839 5842 5846 5847 5849 5850 5852 5855 5857 5858 5860 5862 5864 5866 5868 5871 5873 5875 5876 5877 5878 5880 5881 5883 5884 5884 5884 5883 5883 5885 5888 5889 5891 5893 5895 5897 5898 5899 5900 5901 5901 5902 5904 5905 5907 5908
5793 5792 5791 5790 5789 5788 5787 5787 5786 5786 5786 5787 5788 5789 5789 5790 5792 5793 5795 5796 5798 5800 5802 5805 5807 5809 5811 5813 5815 5816 5818 5819 5821 5823 5825 5827 5828 5830 5831 5833 5835 5837 5838 5841 5844 5845 5847 5849 5851 5854 5855 5857 5859 5861 5863 5865 5867 5869 5872 5873 5874 5875 5877 5879 5881 5883 5884 5884 5885 5885 5884 5885 5888 5890 5891 5893 5895 5897 5898 5899 5900 5901 5902 5903 5904 5906 5907 5909
5789 5788 5786 5785 5784 5783 5782 5782 5781 5781 5781 5782 5783 5783 5784 5785 5787 5789 5790 5792 5793 5795 5798 5800 5803 5805 5807 5809 5811 5813 5815 5817 5818 5821 5823 5824 5826 5828 5830 5831 5833 5835 5837 5840 5842 5843 5846 5848 5850 5852 5854 5856 5859 5860 5862 5864 5866 5868 5870 5872 5873 5875 5876 5878 5881 5883 5884 5884 5885 5886 5886 5886 5888 5890 5891 5892 5894 5897 5899 5899 5900 5901 5902 5903 5905 5906 5908 5909
5785 5783 5782 5780 5779 5778 5777 5776 5776 5776 5777 5777 5778 5779 5779 5780 5782 5784 5785 5787 5788 5790 5793 5796 5798 5801 5802 5805 5808 5810 5812 5814 5816 5818 5820 5822 5824 5826 5827 5829 5830 5832 5835 5838 5840 5842 5844 5846 5848 5850 5852 5855 5857 5859 5861 5862 5864 5866 5868 5870 5872 5874 5876 5878 5880 5882 5883 5883 5885 5886 5887 5887 5888 5889 5891 5892 5894 5896 5898 5899 5900 5901 5902 5903 5905 5906 5908 5909
5780 5778 5777 5775 5774 5773 5772 5771 5770 5770 5771 5772 5772 5774 5774 5775 5777 5779 5781 5782 5783 5786 5789 5791 5794 5796 5798 5801 5804 5807 5809 5811 5813 5815 5817 5819 5821 5823 5825 5826 5828 5831 5833 5836 5838 5841 5843 5844 5846 5848 5851 5853 5855 5858 5860 5861 5862 5864 5866 5869 5872 5873 5874 5877 5879 5881 5882 5883 5884 5885 5886 5887 5888 5889 5890 5892 5894 5895 5896 5898 5899 5900 5901 5903 5904 5906 5907 5909
5776 5774 5772 5770 5769 5768 5767 5766 5765 5765 5766 5767 5767 5768 5769 5771 5773 5774 5776 5778 5779 5781 5784 5787 5790 5792 5794 5797 5800 5803 5806 5808 5810 5812 5815 5817 5819 5820 5822 5824 5827 5829 5831 5834 5836 5839 5840 5842 5844 5847 5850 5852 5854 5856 5858 5858 5860 5862 5864 5867 5870 5872 5873 5876 5878 5880 5881 5882 5882 5884 5885 5886 5888 5889 5890 5891 5893 5894 5896 5898 5899 5900 5901 5903 5904 5905 5906 5908
5771 5769 5768 5766 5764 5763 5762 5761 5760 5760 5761 5761 5761 5762 5764 5766 5768 5770 5772 5773 5775 5777 5780 5783 5785 5787 5790 5793 5796 5799 5802 5805 5807 5809 5812 5814 5816 5818 5820 5822 5825 5827 5830 5832 5834 5837 5838 5840 5844 5846 5847 5849 5851 5853 5855 5856 5858 5861 5863 5865 5868 5871 5872 5874 5876 5878 5881 5881 5881 5882 5884 5885 5887 5888 5889 5890 5891 5893 5895 5897 5899 5900 5902 5903 5904 5904 5905 5907
5767 5765 5763 5761 5760 5758 5757 5756 5755 5755 5755 5755 5756 5757 5759 5760 5763 5765 5767 5769 5770 5773 5776 5778 5781 5784 5786 5789 5792 5795 5798 5801 5804 5806 5808 5811 5814 5816 5818 5820 5823 5825 5828 5830 5832 5835 5837 5839 5842 5843 5844 5846 5848 5850 5852 5853 5856 5859 5861 5863 5866 5869 5870 5872 5874 5877 5879 5880 5880 5882 5884 5886 5887 5888 5889 5890 5890 5891 5893 5895 5897 5899 5901 5903 5904 5905 5905 5906
5763 5761 5759 5757 5756 5754 5752 5751 5750 5750 5750 5750 5750 5752 5754 5756 5758 5761 5763 5765 5766 5769 5772 5774 5777 5780 5782 5786 5789 5792 5794 5797 5800 5803 5805 5808 5811 5813 5815 5818 5820 5823 5825 5828 5831 5833 5836 5838 5839 5839 5840 5843 5845 5847 5849 5851 5854 5856 5859 5861 5864 5866 5868 5870 5873 5875 5877 5878 5880 5881 5883 5885 5886 5887 5888 5889 5889 5890 5891 5893 5895 5897 5899 5902 5903 5904 5905 5906
5759 5757 5755 5753 5751 5750 5748 5747 5746 5746 5745 5745 5746 5748 5750 5752 5755 5757 5759 5761 5763 5765 5768 5770 5773 5776 5779 5782 5785 5788 5791 5793 5796 5799 5801 5805 5807 5810 5813 5815 5817 5820 5823 5826 5829 5832 5835 5836 5835 5836 5838 5841 5843 5845 5847 5849 5851 5854 5857 5859 5862 5864 5866 5868 5871 5873 5876 5877 5879 5881 5882 5884 5885 5886 5888 5889 5890 5890 5890 5892 5894 5896 5898 5900 5901 5903 5904 5905
5756 5753 5751 5749 5747 5746 5744 5743 5742 5742 5741 5742 5743 5744 5746 5748 5751 5753 5755 5757 5759 5762 5764 5767 5770 5774 5776 5779 5781 5784 5787 5790 5793 5795 5798 5801 5803 5807 5810 5812 5815 5818 5821 5824 5827 5830 5832 5832 5832 5834 5837 5839 5842 5844 5845 5847 5850 5853 5856 5858 5861 5862 5864 5866 5869 5871 5874 5876 5878 5879 5881 5884 5886 5887 5888 5889 5891 5891 5891 5892 5894 5895 5897 5899 5901 5902 5904 5905
5752 5750 5748 5745 5743 5742 5741 5739 5739 5738 5738 5738 5739 5740 5742 5744 5747 5749 5752 5754 5756 5758 5761 5764 5767 5770 5773 5776 5778 5780 5783 5786 5789 5791 5794 5796 5800 5803 5807 5810 5812 5815 5818 5821 5824 5827 5828 5828 5830 5833 5835 5838 5840 5842 5844 5846 5848 5851 5854 5857 5859 5860 5862 5864 5867 5869 5872 5875 5876 5877 5880 5883 5885 5886 5888 5889 5891 5892 5892 5893 5894 5896 5897 5899 5901 5902 5903 5905
5749 5746 5744 5742 5739 5738 5737 5736 5735 5735 5735 5735 5736 5737 5738 5740 5743 5745 5748 5751 5753 5756 5759 5761 5764 5766 5769 5772 5774 5777 5780 5782 5784 5787 5790 5794 5797 5800 5803 5806 5809 5812 5815 5818 5821 5823 5824 5826 5829 5831 5833 5835 5837 5839 5841 5844 5846 5849 5853 5856 5857 5858 5860 5862 5864 5867 5870 5872 5872 5875 5878 5880 5883 5885 5887 5888 5890 5891 5892 5893 5894 5896 5898 5899 5900 5902 5903 5904
5746 5743 5741 5738 5736 5735 5734 5733 5732 5732 5732 5732 5733 5734 5735 5737 5740 5742 5745 5748 5750 5753 5756 5758 5761 5763 5766 5769 5772 5774 5776 5778 5781 5785 5788 5791 5794 5797 5800 5803 5807 5810 5813 5816 5819 5820 5821 5825 5827 5828 5831 5834 5836 5838 5840 5842 5845 5848 5851 5852 5854 5856 5857 5859 5862 5865 5868 5869 5870 5873 5877 5879 5882 5884 5886 5887 5889 5890 5892 5894 5895 5896 5897 5899 5900 5901 5903 5904
5742 5739 5737 5735 5733 5732 5731 5730 5729 5729 5730 5730 5730 5731 5733 5735 5737 5740 5743 5745 5748 5750 5753 5756 5758 5761 5764 5766 5769 5771 5773 5775 5779 5783 5785 5788 5790 5794 5797 5800 5803 5807 5810 5813 5815 5816 5818 5822 5824 5826 5829 5832 5834 5836 5838 5841 5844 5846 5846 5848 5850 5852 5854 5855 5858 5862 5865 5866 5868 5872 5875 5878 5881 5883 5884 5886 5889 5892 5894 5894 5894 5895 5897 5898 5899 5900 5902 5903
5739 5736 5734 5731 5730 5729 5728 5728 5727 5727 5728 5728 5728 5730 5731 5733 5735 5737 5740 5743 5746 5748 5751 5754 5756 5759 5761 5763 5766 5768 5770 5773 5777 5780 5783 5785 5788 5791 5794 5797 5801 5804 5807 5809 5810 5812 5815 5818 5821 5824 5827 5829 5832 5833 5836 5840 5841 5842 5842 5845 5848 5849 5850 5852 5855 5859 5861 5863 5867 5870 5872 5877 5880 5882 5883 5887 5891 5894 5895 5894 5893 5894 5896 5897 5898 5899 5901 5902
5736 5733 5730 5729 5727 5727 5726 5725 5725 5725 5726 5726 5727 5728 5730 5731 5733 5735 5738 5741 5744 5746 5748 5751 5754 5756 5758 5761 5763 5764 5767 5772 5775 5778 5780 5783 5786 5788 5791 5794 5798 5801 5804 5805 5807 5809 5812 5816 5818 5821 5824 5827 5829 5831 5835 5837 5838 5838 5841 5844 5846 5847 5848 5849 5852 5856 5857 5860 5866 5869 5871 5875 5878 5881 5884 5887 5891 5892 5892 5892 5892 5893 5895 5896 5897 5898 5899 5901
5733 5730 5728 5726 5725 5725 5724 5724 5724 5724 5724 5725 5726 5727 5728 5730 5732 5734 5737 5740 5742 5744 5746 5749 5752 5754 5756 5758 5760 5762 5766 5770 5773 5775 5778 5781 5783 5786 5788 5791 5795 5798 5800 5801 5804 5806 5809 5813 5815 5818 5821 5824 5826 5829 5832 5834 5835 5836 5839 5842 5844 5846 5846 5847 5849 5852 5853 5858 5864 5867 5869 5872 5876 5879 5881 5883 5884 5885 5886 5888 5889 5891 5892 5893 5895 5896 5897 5899
5731 5728 5726 5725 5724 5723 5723 5723 5722 5723 5724 5724 5725 5726 5727 5729 5731 5733 5736 5738 5740 5743 5745 5747 5750 5751 5753 5756 5759 5762 5766 5768 5770 5773 5776 5778 5781 5783 5786 5788 5791 5795 5796 5798 5800 5803 5806 5809 5812 5815 5818 5820 5823 5825 5828 5830 5832 5834 5836 5839 5841 5843 5844 5845 5847 5848 5850 5856 5862 5865 5866 5870 5874 5876 5877 5878 5879 5880 5882 5883 5884 5886 5887 5889 5891 5893 5895 5897
5730 5727 5726 5724 5724 5723 5722 5722 5722 5722 5723 5724 5725 5726 5727 5729 5731 5733 5735 5737 5740 5742 5744 5746 5748 5750 5752 5755 5758 5761 5764 5765 5768 5771 5774 5776 5779 5781 5783 5786 5789 5791 5793 5795 5797 5799 5803 5806 5809 5812 5814 5817 5819 5821 5824 5827 5829 5831 5833 5836 5838 5840 5842 5843 5844 5846 5848 5853 5859 5862 5863 5867 5871 5873 5874 5876 5877 5878 5879 5880 5881 5883 5884 5885 5887 5889 5892 5894
5729 5727 5726 5724 5723 5723 5722 5722 5722 5723 5723 5725 5726 5727 5729 5730 5732 5734 5736 5738 5740 5742 5743 5745 5747 5750 5752 5755 5757 5759 5761 5763 5766 5769 5771 5774 5776 5778 5781 5783 5786 5788 5790 5792 5794 5796 5799 5802 5804 5807 5810 5813 5816 5818 5820 5823 5826 5829 5831 5833 5836 5838 5840 5841 5843 5845 5848 5851 5856 5859 5861 5864 5868 5871 5873 5874 5875 5877 5879 5880 5882 5883 5884 5884 5885 5887 5890 5892
5729 5727 5726 5725 5724 5723 5723 5723 5723 5723 5724 5725 5727 5728 5730 5731 5733 5735 5737 5739 5740 5742 5744 5746 5748 5750 5752 5755 5756 5758 5760 5762 5764 5767 5769 5771 5773 5776 5778 5781 5784 5786 5787 5789 5791 5793 5796 5798 5801 5804 5807 5809 5812 5814 5817 5820 5823 5825 5828 5830 5833 5835 5838 5840 5842 5844 5846 5849 5853 5855 5857 5860 5865 5869 5871 5872 5873 5875 5877 5879 5881 5882 5884 5885 5886 5887 5889 5891
5730 5728 5727 5726 5725 5724 5724 5724 5724 5724 5725 5726 5727 5729 5730 5732 5734 5735 5737 5739 5741 5743 5744 5746 5748 5750 5752 5754 5756 5757 5759 5761 5763 5765 5767 5769 5772 5774 5776 5779 5781 5783 5785 5787 5788 5790 5792 5794 5797 5801 5803 5805 5809 5811 5813 5816 5819 5822 5825 5827 5830 5833 5836 5838 5839 5841 5843 5846 5849 5852 5854 5857 5862 5866 5868 5869 5871 5873 5875 5877 5879 5880 5882 5884 5887 5888 5888 5889
5731 5729 5728 5727 5726 5725 5725 5725 5725 5726 5726 5727 5728 5730 5731 5733 5734 5736 5738 5739 5741 5743 5744 5746 5748 5749 5751 5753 5755 5757 5759 5761 5762 5764 5766 5768 5770 5772 5774 5776 5779 5781 5783 5785 5786 5788 5790 5792 5794 5797 5799 5802 5805 5808 5810 5813 5816 5819 5821 5823 5827 5830 5832 5834 5836 5838 5840 5843 5846 5848 5850 5853 5857 5861 5864 5867 5869 5871 5873 5875 5877 5879 5881 5883 5886 5888 5888 5888
5732 5730 5729 5727 5726 5726 5726 5726 5726 5727 5727 5728 5729 5730 5732 5733 5735 5736 5738 5739 5741 5742 5744 5746 5747 5749 5751 5753 5755 5756 5758 5760 5762 5764 5765 5767 5769 5771 5772 5774 5776 5779 5781 5782 5784 5785 5787 5789 5791 5793 5795 5798 5801 5804 5807 5809 5812 5815 5818 5821 5824 5827 5828 5831 5833 5834 5837 5840 5842 5844 5847 5850 5852 5857 5861 5865 5866 5868 5870 5873 5875 5877 5879 5881 5884 5886 5888 5888
5732 5731 5730 5728 5727 5726 5726 5726 5727 5727 5727 5728 5729 5731 5732 5733 5735 5736 5738 5739 5741 5742 5744 5745 5747 5749 5750 5752 5754 5755 5757 5759 5761 5762 5764 5766 5768 5770 5772 5773 5775 5777 5779 5781 5782 5783 5785 5787 5788 5790 5792 5795 5797 5800 5803 5806 5809 5811 5814 5817 5820 5822 5824 5827 5830 5831 5834 5836 5838 5841 5844 5846 5848 5852 5857 5860 5862 5865 5867 5870 5872 5875 5877 5879 5882 5884 5886 5888
5733 5732 5730 5729 5728 5727 5726 5726 5727 5727 5728 5728 5729 5731 5732 5733 5735 5736 5738 5739 5740 5742 5743 5745 5747 5748 5749 5751 5753 5754 5756 5758 5759 5761 5763 5764 5766 5768 5770 5772 5773 5775 5777 5779 5780 5781 5783 5784 5785 5787 5790 5792 5794 5796 5799 5802 5805 5808 5811 5814 5816 5818 5821 5824 5826 5828 5831 5833 5835 5837 5840 5842 5844 5847 5852 5856 5859 5861 5864 5867 5869 5872 5875 5878 5880 5882 5884 5886
5734 5733 5732 5730 5729 5727 5727 5726 5726 5727 5728 5729 5730 5731 5732 5733 5734 5736 5737 5739 5740 5741 5742 5744 5745 5747 5748 5749 5751 5752 5754 5756 5757 5759 5761 5762 5764 5765 5767 5769 5770 5772 5774 5776 5778 5779 5780 5782 5783 5784 5787 5789 5790 5793 5796 5799 5802 5805 5807 5810 5813 5815 5818 5820 5822 5825 5827 5829 5831 5834 5836 5839 5841 5844 5848 5852 5855 5858 5860 5863 5866 5870 5873 5876 5878 5880 5882 5883
5735 5734 5733 5732 5730 5729 5728 5727 5727 5727 5728 5728 5729 5731 5732 5733 5734 5735 5737 5738 5739 5740 5741 5743 5744 5745 5746 5748 5749 5751 5752 5754 5755 5757 5758 5760 5761 5763 5764 5766 5767 5769 5770 5772 5774 5776 5778 5779 5781 5782 5783 5785 5787 5789 5792 5796 5799 5801 5804 5806 5809 5812 5814 5817 5819 5821 5824 5826 5828 5830 5833 5835 5838 5840 5844 5848 5851 5854 5857 5860 5863 5867 5870 5873 5875 5877 5879 5880
5736 5735 5735 5733 5732 5731 5729 5728 5728 5728 5728 5728 5729 5730 5731 5733 5734 5735 5736 5737 5738 5739 5740 5741 5742 5744 5745 5746 5747 5749 5750 5752 5753 5755 5756 5758 5759 5760 5761 5763 5764 5765 5767 5768 5770 5772 5774 5776 5778 5779 5780 5782 5784 5786 5788 5792 5795 5798 5800 5802 5805 5808 5811 5814 5815 5818 5821 5823 5825 5828 5830 5831 5834 5837 5840 5843 5846 5850 5854 5857 5860 5863 5867 5870 5872 5874 5875 5877
5737 5736 5736 5735 5734 5733 5732 5731 5730 5730 5729 5729 5730 5730 5731 5732 5733 5734 5735 5736 5737 5738 5739 5740 5741 5742 5743 5745 5746 5747 5748 5750 5751 5752 5754 5755 5756 5758 5759 5760 5761 5762 5764 5765 5767 5769 5771 5772 5774 5776 5777 5778 5780 5782 5785 5787 5790 5793 5796 5798 5801 5804 5807 5810 5812 5814 5817 5819 5822 5825 5826 5827 5829 5833 5835 5838 5842 5846 5850 5854 5856 5860 5864 5867 5869 5870 5872 5874
5738 5737 5737 5736 5735 5734 5734 5733 5733 5732 5732 5731 5731 5732 5733 5733 5734 5734 5735 5735 5736 5736 5737 5738 5740 5741 5742 5743 5744 5745 5746 5748 5749 5750 5751 5753 5754 5755 5757 5758 5759 5760 5761 5763 5764 5766 5767 5769 5770 5772 5773 5775 5776 5779 5781 5783 5786 5788 5791 5793 5796 5799 5802 5805 5808 5811 5813 5816 5818 5821 5823 5823 5825 5828 5831 5834 5838 5842 5846 5849 5852 5856 5859 5862 5865 5866 5868 5870
5738 5738 5738 5738 5737 5736 5736 5735 5735 5734 5734 5734 5734 5734 5734 5734 5735 5735 5735 5735 5736 5736 5737 5738 5739 5740 5742 5743 5743 5744 5745 5746 5747 5748 5750 5751 5752 5754 5755 5756 5757 5758 5759 5760 5762 5763 5765 5766 5767 5769 5770 5772 5773 5775 5778 5780 5782 5784 5786 5788 5791 5795 5798 5800 5804 5807 5810 5813 5815 5817 5819 5819 5821 5825 5826 5830 5834 5837 5841 5845 5848 5851 5854 5857 5859 5862 5864 5867
5739 5739 5739 5739 5738 5738 5737 5737 5737 5737 5736 5736 5736 5736 5736 5736 5736 5736 5737 5737 5737 5737 5738 5738 5739 5740 5741 5742 5743 5744 5744 5745 5746 5747 5748 5750 5751 5752 5753 5754 5755 5756 5757 5758 5760 5761 5763 5764 5766 5767 5768 5769 5770 5772 5774 5777 5778 5780 5782 5784 5787 5791 5793 5796 5799 5801 5805 5809 5810 5811 5813 5815 5818 5821 5822 5824 5829 5833 5836 5840 5843 5847 5849 5852 5854 5857 5860 5862
5740 5739 5739 5739 5739 5739 5738 5738 5738 5738 5738 5737 5737 5737 5737 5737 5738 5738 5738 5738 5739 5739 5739 5739 5740 5740 5741 5742 5742 5743 5744 5745 5746 5746 5747 5748 5749 5750 5751 5752 5753 5754 5755 5756 5757 5759 5760 5762 5763 5765 5766 5767 5768 5769 5771 5773 5775 5777 5778 5780 5783 5786 5789 5792 5794 5797 5801 5804 5804 5805 5807 5810 5815 5817 5818 5819 5823 5828 5832 5835 5838 5842 5844 5847 5849 5851 5855 5858
5742 5741 5740 5740 5740 5739 5739 5739 5738 5738 5738 5738 5738 5738 5738 5738 5738 5739 5739 5739 5739 5740 5740 5740 5740 5741 5741 5742 5742 5743 5744 5744 5745 5745 5746 5746 5747 5748 5749 5750 5751 5752 5753 5754 5755 5756 5757 5759 5760 5762 5763 5764 5765 5766 5768 5769 5771 5773 5774 5776 5779 5782 5784 5787 5790 5793 5796 5798 5799 5800 5802 5806 5810 5813 5814 5815 5818 5822 5827 5830 5833 5836 5839 5842 5844 5847 5850 5853
5743 5742 5741 5741 5740 5739 5739 5738 5738 5738 5738 5738 5738 5738 5738 5738 5738 5739 5739 5739 5740 5740 5740 5740 5740 5741 5741 5741 5742 5742 5743 5743 5744 5744 5745 5745 5745 5746 5747 5747 5748 5749 5750 5751 5752 5753 5754 5755 5757 5759 5760 5762 5763 5763 5764 5766 5767 5769 5771 5773 5775 5778 5780 5783 5785 5788 5791 5792 5793 5795 5797 5800 5805 5808 5810 5812 5814 5817 5821 5825 5828 5832 5834 5837 5839 5842 5845 5848
5745 5743 5742 5741 5740 5740 5739 5738 5738 5738 5738 5738 5738 5738 5738 5738 5738 5738 5738 5739 5739 5739 5740 5740 5740 5740 5740 5741 5741 5741 5742 5742 5742 5743 5743 5743 5743 5744 5744 5745 5745 5746 5747 5748 5748 5750 5751 5752 5753 5755 5756 5758 5759 5760 5761 5762 5763 5765 5767 5769 5771 5773 5774 5777 5780 5783 5785 5786 5788 5791 5793 5795 5799 5802 5805 5807 5809 5812 5816 5820 5824 5827 5829 5832 5835 5837 5840 5843
5745 5744 5742 5741 5740 5739 5739 5738 5738 5737 5737 5737 5737 5737 5737 5737 5737 5737 5737 5738 5738 5738 5738 5739 5739 5739 5740 5740 5740 5740 5740 5741 5741 5741 5741 5741 5741 5741 5741 5742 5742 5743 5743 5744 5745 5746 5747 5748 5749 5750 5752 5753 5755 5756 5757 5758 5760 5761 5762 5764 5766 5768 5769 5772 5775 5777 5779 5781 5783 5785 5787 5790 5793 5797 5799 5802 5805 5807 5810 5814 5818 5821 5824 5827 5830 5833 5835 5838